Погода в Еделеве

Россия / Ульяновская область     53°24′17″N   47°44′45″E
темп.,
°C
ветер,
м/с
пор.,
м/с
влажн.,
%
обл.,
%
осадки,
мм/ч
давл.,
гПа
погр.,
м
25 января, вт
вт2501:00−19всв1110099 0.0 10359
04:00−19вюв1199100 0.0 10349
07:00−20юв1110024 0.0 10329
10:00−18ююв229938 0.0 103134
13:00−12ююв3588100 0.0 1029177
16:00−12ююв2692100 0.0 1027176
19:00−19ююв229979 0.0 102612
22:00−15ююв259786 0.0 1024101
26 января, ср
ср2601:00−15ююв249899 0.0 1022105
04:00−15ю229982 0.1 102124
07:00−17ю1110084 0.1 102010
10:00−14ююз2298100 0.1 101951
13:00−10ююз2391100 0.0 1018242
16:00−9юз2393100 0.1 1017265
19:00−12юз2398100 0.0 101853
22:00−14юз259764 0.1 101983
27 января, чт
чт2701:00−18юз2310098 0.0 102045
04:00−19юз2210088 0.0 102023
07:00−19юз22100100 0.0 102139
10:00−13ююз3695100 0.1 1021148
13:00−9ююз4791100 0.0 1020308
16:00−8ю399586 0.1 1020368
19:00−12ю259988 0.1 102068
22:00−12ю259992 0.1 102081
28 января, пт
пт2801:00−10ю399690 0.2 1020195
04:00−12ююв249993 0.3 101980
07:00−14ююв24100100 0.1 101955
10:00−12ю269999 0.1 1019125
13:00−8ююв479386 0.0 1017271
16:00−9ююв379489 0.0 1016246
19:00−16юв2210072 0.0 101711
22:00−18ююв2210099 0.0 101612
29 января, сб
сб2901:00−18ююв22100100 0.0 101522
04:00−17ююв24100100 0.1 101453
07:00−12ююв31196100 0.3 1012228
10:00−10ююв4119599 1.1 1011279
13:00−7ю589399 0.3 1010300
16:00−5ю4996100 0.3 1009324
19:00−8ю2798100 0.1 1009130
22:00−5ю3109894 0.2 1008240